SL-16 DEB, 22496

Orbit data source: Space-Track

SL-16 DEB, 22496 is space debris in LEO originally from a launch on Fri, 25 Dec 1992 UTC launched from the Tyuratam Missile And Space Complex (TTMTR). Debris objects in space refer to the collection of defunct objects orbiting the Earth. Examples of debris include non-operational satellites, rocket bodies, and fragments generated from explosions, collisions, or faulty payload assembly.

Loading next visibility...
Identifier
22496, 1992-093GF
Orbit
LEO
Country
Flag of CISCIS
Related business
Manufacturer
Unknown
Mission
Spacecraft
Bus & Motor
Unknown
Mass
Unknown
Launch date (UTC)
1992-12-25 (33 years ago)
Launch vehicle
Unknown
Launch site
Tyuratam Missile And Space Complex (TTMTR)
Object type
Payload
Rocket body
Debris
Shape & HBR
Unknown shape, 0.1 m
Radar Cross Section
Small (<0.1 m²)

Expand to show TLE details & history
Last TLE update: 2 days ago

TLE from 2 days ago
0 SL-16 DEB
1 22496U 92093GF  25346.41724334  .00000224  00000-0  18274-3 0  9997
2 22496  71.2152 104.1619 0091325 315.0989 112.0133 13.97834479676724
Epoch: 2025-12-12T10:00Z
TLE epoch observation values (Epoch: 2025-12-12T10:00:49.824Z)
Latitude
61.54165°
Longitude
-88.77718°
Altitude
936.743 km
Speed
7.377 km/s
True Right ascension
09h 31m 09s
True Declination
61° 24' 03"
Sunlit
Object was in full shadow at epoch
Visualization orbit readout
Latitude
Unknown
Longitude
Unknown
Altitude
Unknown
Speed
Unknown
Apparent Right ascension
Unknown
Apparent Declination
Unknown
Sunlit
N/A
Visualization observer readout
Local Sidereal Time
09:28:25
Azimuth
Unknown
Elevation
Unknown
Doppler factor
Unknown
Orbital elements
Apogee altitude
965.685 km
Perigee altitude
832.764 km
Semi-major axis
7,277.361 km
Eccentricity
0.00913
Inclination
71.2152°
RAAN
104.1619°
Arg. of periapsis
315.0989°
True anomaly
112.97933°
Mean anomaly
112.0133°
Eccentric anomaly
112.49673°
Mean motion
3.49609 °/min
Orbital period
102.97 mins
BSTAR
0.00018274
Loading maneuver chart data...
Computing Atmospheric mass density...
Loading historical data...
Loading historical data...
Loading historical data...
Loading historical data...
Loading historical data...
Loading historical data...
Loading historical data...

Documentation

Showing up to 5 results
|